星链-32870 (STARLINK-32870)

导读

STARLINK-32870是由美国于2025年2月15日发射的星链卫星,星链计划是美国太空探索技术公司SpaceX打造的低轨卫星互联网星座项目。该卫星作为星链星座的新增组网节点,承担着为全球用户提供高速宽带互联网服务的任务,进一步扩充了星链低轨星座的覆盖范围与服务容量。

Basic Information
目录编号:
63018
目录名称:
STARLINK-32870
国际标识:
2025-032P
轨道中心:
EARTH
卫星名称:
星链-32870
卫星全名:
星链-32870 (STARLINK-32870)
卫星状态:
在轨 (已飞行484 天)
发射日期:
2025-02-15 UTC
国别 :
美国 (US)
星等 :
--
Orbit Information
数据来源 国际轨道数据 AOE轨道数据
星历时间 2026-06-13T18:40:21+0800
22小时前
查看轨道信息
2026-06-11T21:00:00+0800
2天前
查看轨道信息
半长轴 6861.021km 6861.197km
偏心率 0.0003553 0.0002145
轨道倾角 43.005° 42.998°
近地点辐角 278.609° 272.479°
升交点赤经 155.347° 166.096°
平近点角 81.436° 49.875°
近地点 480.446km 481.588km
远地点 485.322km 484.532km
周期 94.263分钟 94.267分钟
每日圈数 15.276354 15.275766
Detailed Information
固有亮度:
5
最大亮度:
2.5
卫星平台:
Starlink V1.0
覆盖范围:
全球
运营商:
太空探索技术公司
运营商所在国:
美国
制造商(研发单位):
太空探索技术公司
制造商所在国:
美国
使用方式:
暂无
Satellite Introduction
Starlink 计划是 SpaceX 推出的全球卫星互联网项目,通过发射低轨道卫星,为全球尤其是偏远地区提供高速、低延迟的互联网服务。自 2019 年起,Starlink 已部署数千颗卫星,旨在缩小全球数字鸿沟,推动互联网普及。该项目还为军事、航空等行业提供通信支持,带来广泛经济效益。
2D Orbit Map
3D Orbit Map
Orbit Altitude Analysis Chart
Orbit Inclination Analysis Chart
Orbit Comprehensive Analysis Chart
View Comprehensive Chart